Location: Santa Clara
(37.3540°N, 121.9540°W)
Time: 00:39:31
(UTC-08:00)

ARIANE 6 FM1 Upper Stage - Visible Passes

Search period start: 20 January 2026 00:00
Search period end: 30 January 2026 00:00
Orbit: 522 x 610 km, 62.0° (Epoch: 19 January)

Date Brightness Start Highest point End Pass type
(mag) Time Alt. Az. Time Alt. Az. Time Alt. Az.
20 Jan 2.5 19:08:49 10° SW 19:12:56 86° WNW 19:13:10 78° NNE visible
21 Jan 3.1 19:09:05 10° SW 19:13:07 54° NW 19:14:07 42° N visible
22 Jan 3.9 19:09:32 10° WSW 19:13:20 36° NW 19:14:57 25° N visible
23 Jan 4.6 19:10:11 10° WSW 19:13:34 25° NW 19:15:41 16° N visible
24 Jan 5.0 19:11:04 10° W 19:13:51 18° NW 19:16:21 11° N visible
25 Jan 5.3 19:12:21 10° WNW 19:14:11 13° NW 19:16:01 10° NNW visible
